Temperature
18 18 18 18 18 18 18 18 18 18 18 17 17 17 17 17 17 17 17 18 17 17 17 17 17 17 17 17 17 17 16 16 16 16 16 16 16 16 16 16 15 15 15
18 18 18 18 18 18 18 18 18 18 18 18 17 17 17 17 17 17 17 17 17 17 17 17 17 17 17 17 17 17 16 16 16 16 16 16 16 16 16 16 16 15 15
18 18 18 18 18 18 18 18 18 18 18 18 17 17 17 17 17 17 17 17 17 17 17 17 17 17 17 17 17 17 16 16 16 16 16 16 16 16 16 16 15 15 15
18 18 18 18 18 18 18 18 18 18 18 18 17 17 17 17 17 17 17 17 17 17 17 17 17 17 17 17 17 17 16 16 16 16 16 16 16 16 16 16 15 15 15
18 18 18 18 18 18 18 18 18 18 18 18 17 17 17 17 17 17 17 17 17 17 17 17 17 17 17 17 17 17 17 16 16 16 16 16 16 16 16 15 15 15 15
18 18 18 18 18 18 18 18 18 18 18 18 18 17 17 17 17 17 17 17 17 17 17 17 17 17 17 17 17 17 16 16 16 16 16 16 16 16 15 15 15 15 15
18 18 18 18 18 18 18 18 18 18 18 18 17 17 17 17 17 17 17 17 17 17 17 17 17 17 17 17 17 17 16 16 16 16 16 16 16 16 15 15 15 15 15
18 18 18 18 18 18 18 18 18 18 18 18 18 17 17 17 17 17 17 17 17 17 17 17 17 17 17 17 17 17 16 16 16 16 16 16 16 16 15 15 15 15 15
18 18 18 18 18 18 18 18 18 18 18 18 18 18 17 18 17 17 17 17 17 17 17 17 17 17 17 17 17 16 16 16 16 16 16 16 16 15 15 15 15 15 15
18 18 18 18 18 18 18 18 18 18 18 18 18 18 18 18 17 17 17 17 17 17 17 17 17 17 17 17 17 16 16 16 16 16 16 16 15 15 15 15 15 15 15
18 18 18 18 18 18 18 18 18 18 18 18 18 18 18 18 18 17 17 17 17 17 17 17 17 17 17 17 17 16 16 16 16 16 16 15 15 15 15 15 15 15 14
18 18 18 18 18 18 18 18 18 18 18 18 18 18 18 18 18 18 17 17 17 17 17 17 17 17 17 17 17 16 16 16 16 16 16 15 15 15 15 15 14 14 14
18 18 18 18 18 18 18 18 18 18 18 18 18 18 18 18 18 18 17 17 17 17 17 17 17 17 17 17 17 16 16 16 16 16 15 15 15 15 15 14 14 14 14
18 18 18 18 18 18 18 18 18 18 18 18 18 18 18 18 17 17 17 17 17 17 17 17 17 17 16 16 16 16 16 16 16 15 15 15 15 14 14 14 14 14 13
18 18 18 18 18 18 18 18 18 18 17 17 17 17 17 18 17 17 17 17 17 17 17 17 17 17 16 16 16 16 16 16 15 15 15 15 14 14 14 14 13 13 13
18 18 18 18 18 18 18 18 17 17 17 17 17 17 17 17 17 17 17 17 17 17 17 17 17 16 16 16 16 15 15 15 15 15 15 14 14 14 13 13 13 13 12
18 18 18 17 17 17 17 17 17 17 17 17 17 17 17 17 17 17 17 17 17 17 16 16 16 16 16 15 15 15 15 15 15 14 14 14 13 13 13 13 12 12 12
18 18 18 17 17 17 17 17 17 17 17 17 17 17 17 17 17 17 17 17 17 16 16 16 16 16 15 15 15 15 15 14 14 14 13 13 13 13 12 12 12 12 11
18 18 17 17 17 17 17 17 17 17 17 17 17 17 17 16 16 16 16 16 16 16 16 16 16 16 15 15 14 14 14 14 13 13 13 13 12 12 12 12 11 11 11
18 17 17 17 17 17 17 17 17 17 16 16 16 16 16 16 16 16 16 16 16 16 16 16 16 15 15 14 14 14 13 13 13 12 12 12 12 12 11 11 10 10 10
18 17 17 17 17 17 17 17 16 16 16 16 16 16 16 16 16 16 16 16 16 15 15 15 15 15 14 14 14 13 13 12 12 12 12 11 11 11 11 10 10 10 10
17 17 17 17 17 17 17 16 16 16 16 16 16 16 16 16 16 15 15 15 15 15 15 15 15 14 14 14 13 13 12 12 11 11 11 11 10 10 10 10 9 9 9
17 17 17 17 17 16 16 16 16 16 16 16 16 16 16 15 15 15 15 15 15 15 15 15 15 14 14 14 13 13 12 12 12 12 11 10 10 10 10 9 9 9 9
17 17 17 16 16 16 16 16 16 16 16 15 15 15 15 15 15 15 15 15 15 15 14 14 14 14 14 13 13 13 12 12 11 11 11 10 10 9 9 9 9 8 8
17 17 16 16 16 16 16 16 15 15 15 15 15 15 15 15 15 15 14 14 14 14 14 14 13 13 13 12 12 12 11 11 11 10 10 10 9 9 9 9 8 8 8
17 16 16 16 16 15 15 15 15 15 15 15 15 14 14 14 14 14 14 14 14 13 13 13 13 12 12 12 12 11 11 11 11 10 10 9 9 9 8 8 8 8 8
Wind_Speed
5 6 6 7 7 7 6 5 4 3 2 3 4 6 8 9 11 12 13 15 15 15 14 13 13 13 12 12 11 11 10 10 10 10 10 9 8 8 7 7 6 6 5
8 6 5 5 6 7 7 6 5 4 3 2 2 6 8 10 11 12 12 14 15 14 14 14 13 13 13 12 12 11 11 11 10 10 10 9 9 8 8 7 7 6 6
10 8 5 4 6 8 7 6 4 3 2 1 2 4 7 9 10 12 13 13 13 14 15 14 14 14 13 13 12 12 11 11 11 11 10 10 9 8 8 8 7 7 6
12 9 5 4 7 7 6 3 3 2 2 2 2 2 4 6 9 11 11 12 13 12 13 14 14 14 13 13 12 12 11 11 11 11 11 10 10 9 9 8 8 7 7
12 9 6 6 7 5 4 4 3 3 2 2 3 2 2 3 5 8 9 11 13 13 13 14 15 15 14 14 13 13 12 12 12 12 11 11 11 10 10 10 9 8 8
11 10 6 6 7 4 3 3 3 3 3 3 2 1 1 2 4 5 7 9 11 13 13 13 13 14 15 15 14 13 13 13 13 12 12 11 11 11 11 11 10 9 9
10 9 5 5 5 5 5 5 3 3 2 2 2 1 2 1 2 4 5 5 8 11 12 13 13 13 13 16 16 15 15 14 13 13 12 12 12 12 11 11 11 10 9
9 9 6 5 5 4 5 5 4 3 2 3 3 2 1 3 2 3 3 5 6 8 10 12 13 13 12 12 14 16 15 15 14 14 13 13 13 12 12 11 11 10 10
9 8 8 6 5 5 5 5 5 5 3 2 3 4 3 4 2 2 2 4 4 4 5 8 11 13 13 13 13 14 16 16 15 14 13 13 13 13 12 12 11 11 10
9 9 8 7 6 5 5 6 5 4 5 3 2 3 3 4 3 1 2 2 3 5 5 6 8 11 12 11 12 13 14 14 14 13 13 12 12 12 12 11 10 10 10
7 8 9 7 6 5 6 6 5 5 5 5 4 3 2 2 2 3 2 2 1 2 4 4 5 8 11 12 12 12 13 13 13 13 12 12 11 11 10 10 9 8 8
4 6 7 7 6 5 6 6 6 6 6 5 4 4 4 3 4 4 4 3 2 2 2 2 3 6 9 10 11 12 13 13 13 12 12 11 10 10 9 9 8 7 7
4 6 5 5 5 5 6 5 5 6 6 5 5 5 4 4 4 4 4 3 2 2 1 1 2 5 7 8 9 11 11 12 12 12 12 11 10 10 9 8 7 7 7
5 5 5 6 6 6 6 5 5 5 5 5 6 5 4 4 4 4 4 4 3 2 2 2 1 3 5 7 8 9 8 10 11 12 12 12 11 11 10 9 8 8 8
5 5 6 6 6 5 5 5 4 5 4 5 5 5 5 4 4 4 5 5 5 4 4 4 2 2 5 6 7 9 9 11 12 12 12 12 12 11 10 10 9 9 9
5 5 5 6 6 5 5 5 4 4 5 4 4 4 4 4 4 4 4 4 5 5 4 3 3 3 4 5 6 8 9 11 12 12 12 12 12 11 11 11 10 10 9
4 5 5 5 5 5 5 4 5 5 5 4 4 4 5 4 3 3 3 4 4 4 4 2 1 2 3 4 5 7 8 9 10 12 13 12 13 13 12 11 10 9 9
4 4 4 5 5 5 5 5 5 4 5 5 4 4 4 4 4 4 4 4 4 4 4 4 2 2 3 4 5 5 6 7 9 11 12 13 13 12 12 11 11 10 10
3 3 4 4 5 5 5 5 4 4 5 5 5 5 5 4 4 4 4 4 4 4 3 5 4 3 2 3 4 4 5 4 6 8 10 11 12 12 11 11 10 10 9
3 3 3 4 4 4 4 4 4 4 4 4 4 4 4 4 5 5 4 4 4 4 4 5 4 3 3 3 4 4 3 2 3 5 7 8 10 10 10 10 10 10 10
3 3 3 3 3 3 3 4 4 4 4 3 2 2 3 4 5 4 4 4 4 5 5 5 5 4 4 4 5 4 5 4 2 3 4 5 6 6 7 9 10 10 10
2 2 2 2 2 2 3 4 4 3 3 2 2 1 1 1 2 2 3 4 5 6 7 6 5 6 6 5 5 6 6 5 3 4 4 3 5 4 6 8 9 10 10
2 2 2 2 2 1 2 3 3 2 2 2 2 2 2 1 0 0 1 1 2 4 6 7 7 8 7 8 8 8 7 6 4 5 5 3 3 3 6 8 10 11 11
3 2 2 2 2 1 2 2 2 2 1 1 1 2 1 0 0 1 1 1 1 0 2 3 6 6 6 7 9 8 8 5 3 3 4 3 3 3 4 6 10 11 11
2 2 2 2 2 1 1 2 2 2 1 1 0 1 1 1 0 2 3 2 1 1 3 5 6 6 8 10 10 7 6 6 4 3 3 3 3 2 2 2 8 11 11
3 3 2 2 2 2 2 2 3 2 2 1 1 1 2 1 2 3 3 3 2 1 2 3 5 5 6 8 9 8 8 7 4 3 4 4 3 3 2 2 4 7 9
Wind_Direction
164 167 171 176 184 186 186 188 201 215 213 191 174 164 163 162 163 167 174 176 176 176 177 177 177 176 176 177 175 175 175 176 175 176 176 174 172 173 172 171 172 173 173
169 169 169 175 185 191 191 186 192 191 192 171 156 157 160 163 167 174 179 182 183 183 184 185 184 184 185 186 185 185 186 186 186 186 186 185 185 187 185 184 186 187 188
172 171 168 176 189 191 187 181 188 181 175 163 165 164 165 167 172 180 183 183 187 191 192 193 193 193 195 194 194 193 195 196 195 194 193 193 193 192 190 189 190 188 187
177 171 169 182 193 184 176 169 173 163 177 179 187 178 164 171 181 183 184 188 191 195 199 200 198 198 201 201 201 200 202 201 201 199 195 195 197 197 196 195 198 199 201
181 174 176 190 188 178 175 181 172 166 177 187 196 194 172 176 185 188 190 195 197 197 201 205 205 204 206 208 208 207 205 205 205 203 203 204 205 205 205 206 207 208 210
181 176 179 188 176 167 177 174 172 172 174 179 189 194 200 193 189 192 199 200 203 205 205 208 209 211 212 213 213 212 210 210 210 209 210 211 210 209 211 213 212 212 214
183 178 179 178 173 174 181 174 159 161 179 150 103 23 342 287 216 211 200 193 203 209 208 210 211 212 216 220 219 219 217 217 214 213 212 212 213 214 216 218 217 216 217
192 190 180 179 178 175 180 176 160 157 186 160 141 125 336 333 302 237 206 199 201 203 208 214 213 213 215 215 220 221 221 221 218 217 215 215 216 216 216 218 217 214 213
198 195 190 183 184 180 187 192 177 168 188 208 171 156 168 221 271 302 239 215 201 195 202 209 210 212 213 214 218 223 224 222 219 219 218 217 216 216 216 216 214 212 213
204 198 194 191 190 189 190 201 189 179 172 199 216 204 188 169 172 258 302 256 215 206 206 210 210 210 208 208 212 216 218 218 218 219 216 213 214 215 215 213 209 207 206
213 205 199 193 193 193 196 203 193 188 183 190 194 190 195 190 174 175 239 270 265 228 210 203 201 201 204 207 209 213 213 215 216 215 212 211 211 210 205 200 198 196 194
223 214 203 197 196 196 198 204 201 197 198 198 196 187 180 182 195 183 207 227 233 257 219 196 196 196 201 203 207 208 207 208 209 209 209 206 201 196 191 190 190 187 181
221 218 208 203 204 204 202 199 202 205 201 200 205 207 202 202 189 176 180 204 221 246 230 213 205 192 194 192 198 202 200 199 200 202 198 191 185 181 176 173 170 168 167
219 215 206 207 205 204 208 199 202 208 204 209 217 212 211 215 200 190 182 178 202 243 236 225 215 179 177 182 183 180 180 189 192 188 183 178 173 169 167 163 159 154 152
222 215 207 206 206 202 201 195 206 211 203 213 222 222 224 226 211 207 194 181 181 208 229 214 201 185 171 169 173 168 171 177 179 179 177 171 166 163 160 156 154 151 150
224 204 206 205 204 202 204 198 206 209 202 212 215 219 230 233 222 211 201 199 193 193 216 207 199 180 163 168 169 165 165 166 168 169 168 166 164 160 158 158 157 156 154
211 202 200 199 200 203 206 205 212 206 205 216 224 220 231 228 227 225 211 205 203 186 209 223 176 153 152 156 147 151 157 158 159 162 165 166 164 162 161 162 160 160 160
210 204 192 192 199 201 199 203 213 208 203 210 220 218 234 238 232 230 223 219 214 198 191 201 195 176 172 171 159 153 156 161 159 163 165 165 162 162 163 165 165 167 166
202 198 192 197 202 205 204 206 209 211 215 218 218 218 231 227 234 229 225 223 220 211 185 181 195 182 171 163 147 145 138 135 148 156 158 159 162 163 165 168 169 170 169
197 205 206 205 206 206 202 205 202 204 215 225 224 221 227 225 226 229 229 221 209 196 180 174 177 172 164 156 149 155 149 144 155 156 155 157 162 163 167 171 172 174 175
210 211 207 208 206 200 205 200 204 207 208 218 224 224 231 227 220 220 222 214 202 193 183 177 178 178 177 171 180 174 170 156 151 162 148 162 162 166 175 178 177 175 174
183 168 173 183 196 214 199 191 193 198 196 190 210 258 268 258 228 220 213 212 203 195 193 185 191 192 194 187 176 173 166 162 185 184 163 177 173 181 188 186 185 181 177
163 150 159 151 142 161 185 180 186 173 181 183 192 226 256 270 295 160 156 217 215 200 192 191 192 197 191 187 178 179 182 182 184 169 152 177 179 194 199 191 189 188 187
157 157 149 139 139 152 141 131 129 125 137 167 193 202 190 235 325 116 125 95 73 95 186 181 190 194 190 183 182 180 174 155 119 136 149 167 179 192 193 193 195 195 195
160 157 154 152 155 167 149 144 127 120 131 139 114 93 120 124 68 126 123 129 114 59 82 119 136 149 160 161 160 148 151 155 163 181 169 153 161 155 163 201 206 203 203
167 157 154 158 167 178 174 151 130 131 147 153 64 59 76 96 112 122 134 144 152 174 120 102 97 103 122 141 155 167 170 171 160 181 184 156 154 142 160 219 211 209 210
Height
1574 1576 1577 1578 1579 1580 1581 1582 1583 1584 1585 1586 1587 1587 1588 1589 1589 1590 1590 1591 1591 1592 1592 1593 1594 1594 1595 1596 1596 1597 1597 1598 1599 1599 1600 1600 1600 1601 1601 1601 1602 1602 1602
1575 1576 1577 1578 1579 1580 1581 1582 1584 1585 1586 1586 1587 1587 1588 1589 1590 1590 1590 1591 1591 1592 1592 1593 1594 1594 1595 1596 1596 1597 1597 1598 1598 1599 1599 1600 1600 1600 1601 1601 1601 1601 1602
1575 1576 1577 1578 1579 1580 1581 1582 1583 1584 1585 1586 1587 1588 1588 1589 1589 1590 1590 1591 1591 1592 1592 1593 1593 1594 1594 1595 1596 1596 1597 1597 1598 1598 1599 1599 1599 1600 1600 1600 1601 1601 1601
1574 1576 1577 1578 1579 1580 1581 1582 1583 1584 1585 1585 1586 1587 1588 1588 1589 1589 1590 1590 1591 1591 1592 1592 1593 1593 1594 1594 1595 1595 1596 1596 1597 1597 1598 1598 1598 1599 1599 1599 1599 1600 1600
1574 1575 1576 1577 1578 1579 1580 1582 1582 1583 1584 1585 1585 1586 1587 1587 1588 1588 1589 1589 1590 1590 1591 1591 1592 1592 1593 1593 1594 1594 1595 1595 1596 1596 1597 1597 1597 1597 1598 1598 1598 1598 1598
1573 1574 1575 1577 1577 1578 1580 1581 1582 1582 1583 1584 1585 1585 1586 1586 1587 1587 1587 1588 1589 1589 1590 1590 1590 1591 1591 1592 1592 1593 1594 1594 1594 1595 1595 1595 1596 1596 1596 1596 1596 1597 1597
1571 1573 1574 1575 1576 1577 1578 1579 1581 1581 1582 1583 1584 1584 1584 1585 1585 1585 1586 1586 1587 1587 1588 1588 1589 1589 1590 1591 1591 1591 1592 1592 1592 1593 1593 1593 1594 1594 1594 1594 1594 1594 1595
1570 1571 1572 1573 1574 1576 1577 1578 1579 1580 1581 1582 1582 1583 1583 1584 1583 1583 1584 1584 1585 1585 1586 1587 1587 1588 1588 1589 1589 1590 1590 1590 1590 1591 1591 1591 1591 1591 1591 1592 1592 1592 1592
1567 1569 1570 1572 1573 1574 1575 1576 1577 1578 1579 1580 1581 1582 1581 1581 1581 1582 1581 1582 1583 1583 1584 1584 1585 1585 1586 1587 1587 1587 1587 1588 1588 1588 1589 1589 1589 1589 1589 1589 1589 1589 1590
1565 1566 1568 1569 1570 1571 1572 1574 1575 1576 1577 1577 1578 1579 1580 1580 1580 1579 1580 1580 1580 1581 1581 1582 1582 1583 1583 1584 1584 1585 1585 1585 1586 1586 1586 1586 1586 1586 1586 1586 1586 1587 1587
1562 1563 1565 1566 1567 1569 1570 1571 1572 1573 1574 1575 1575 1576 1577 1577 1577 1577 1577 1578 1578 1578 1579 1579 1580 1580 1580 1581 1582 1582 1582 1583 1583 1583 1583 1583 1583 1583 1584 1584 1584 1584 1584
1558 1559 1561 1563 1564 1565 1566 1568 1569 1570 1571 1572 1572 1573 1573 1574 1574 1575 1574 1574 1575 1576 1576 1576 1577 1577 1578 1578 1579 1579 1579 1580 1580 1580 1580 1581 1581 1581 1581 1581 1581 1581 1581
1554 1556 1557 1559 1560 1562 1563 1564 1565 1566 1567 1568 1569 1569 1570 1571 1571 1571 1572 1572 1572 1572 1573 1573 1573 1574 1575 1575 1576 1576 1576 1577 1577 1578 1578 1578 1578 1578 1578 1578 1578 1579 1579
1551 1553 1554 1555 1557 1558 1560 1561 1562 1563 1564 1564 1565 1566 1566 1567 1567 1568 1568 1569 1569 1569 1569 1569 1570 1570 1571 1572 1572 1573 1573 1574 1574 1574 1575 1575 1575 1575 1576 1576 1576 1576 1576
1548 1549 1550 1552 1553 1555 1556 1557 1558 1559 1560 1560 1561 1562 1562 1563 1563 1564 1565 1565 1566 1565 1565 1565 1566 1567 1568 1569 1569 1570 1570 1570 1571 1571 1572 1572 1572 1572 1573 1573 1573 1574 1574
1545 1546 1547 1548 1549 1550 1552 1553 1554 1555 1556 1557 1557 1558 1558 1559 1559 1560 1561 1561 1561 1561 1561 1561 1562 1563 1564 1565 1566 1566 1567 1568 1568 1568 1568 1569 1569 1569 1570 1570 1571 1571 1571
1542 1543 1544 1545 1546 1547 1548 1549 1550 1551 1552 1553 1553 1554 1554 1555 1555 1555 1556 1556 1557 1557 1557 1557 1558 1559 1560 1561 1562 1562 1563 1564 1564 1565 1565 1565 1566 1566 1566 1567 1568 1568 1569
1540 1540 1541 1542 1543 1544 1544 1545 1546 1547 1548 1548 1549 1550 1550 1550 1551 1551 1551 1552 1552 1552 1553 1552 1553 1554 1555 1557 1558 1559 1559 1560 1561 1561 1562 1562 1563 1563 1564 1564 1565 1565 1565
1538 1538 1539 1539 1540 1541 1541 1542 1543 1543 1544 1545 1545 1545 1546 1546 1546 1546 1547 1547 1547 1548 1548 1549 1549 1550 1551 1552 1553 1554 1555 1556 1557 1557 1558 1559 1560 1561 1561 1562 1562 1562 1563
1536 1536 1537 1537 1537 1538 1538 1539 1540 1540 1540 1541 1541 1541 1541 1541 1541 1542 1542 1542 1542 1543 1543 1544 1544 1545 1546 1547 1549 1550 1551 1552 1552 1554 1555 1556 1557 1558 1558 1559 1559 1560 1560
1534 1535 1535 1535 1535 1535 1536 1536 1537 1537 1537 1537 1537 1537 1537 1537 1537 1537 1537 1537 1538 1538 1538 1539 1539 1540 1541 1542 1544 1545 1547 1548 1549 1550 1551 1552 1553 1554 1555 1556 1556 1557 1558
1533 1533 1533 1533 1533 1533 1533 1533 1534 1534 1534 1534 1533 1534 1534 1533 1533 1533 1533 1533 1533 1533 1533 1534 1534 1535 1536 1537 1539 1541 1542 1543 1544 1547 1547 1548 1550 1551 1552 1553 1554 1555 1555
1531 1531 1531 1531 1531 1531 1531 1531 1531 1531 1531 1531 1530 1530 1530 1529 1529 1529 1528 1528 1528 1528 1529 1530 1529 1530 1531 1532 1534 1536 1537 1538 1539 1541 1543 1544 1546 1547 1549 1550 1551 1552 1553
1529 1529 1529 1529 1529 1529 1529 1528 1528 1528 1528 1528 1528 1527 1527 1526 1525 1525 1525 1524 1524 1524 1524 1524 1525 1526 1528 1529 1530 1532 1533 1534 1536 1538 1540 1541 1542 1544 1545 1546 1548 1549 1550
1527 1527 1527 1527 1527 1526 1526 1526 1526 1526 1525 1525 1525 1525 1524 1523 1523 1522 1522 1521 1520 1520 1520 1520 1521 1522 1523 1525 1526 1527 1529 1530 1531 1533 1535 1537 1538 1540 1542 1543 1544 1546 1548
1525 1525 1525 1524 1524 1524 1524 1524 1523 1523 1523 1523 1522 1522 1521 1521 1520 1519 1519 1518 1517 1517 1517 1517 1518 1519 1520 1521 1522 1524 1525 1526 1527 1529 1531 1533 1534 1537 1538 1540 1542 1543 1545